STARLINK-35288

Last updated on Mon Oct 20 2025 00:02:06 GMT+0000 (Coordinated Universal Time)

1 65749U 25216R 25292.25002315 -.02063307 00000+0 -47628-1 0 9995 2 65749 53.1595 272.1755 0001085 74.4564 8.1704 15.45510773 4860
UTC large
Height (km)
Speed (km/s)
/
Latitude / Longitude
Inclination (degrees)
Orbital Period (minutes)
Azimuth
Elevation
Range (km)
Doppler Factor

Next 0 passes for location: London (51.5072 / 0.1276)

Sorry there are no passes over London.